Regional Weather Roundup
Issued by NWS Newport/Morehead, NC

Current Version | Previous Version | Graphics & Text | Print | Product List | Glossary Off
Versions: 1 2 3 4 5 6 7 8 9 10 11 12 13 14 15 16 17 18 19 20 21 22 23 24 25 26 27 28 29 30 31 32 33 34 35 36 37 38 39 40 41 42 43 44 45 46 47 48 49 50
000 ASUS42 KMHX 281013 RWRMHX WEATHER ROUNDUP FOR EASTERN NORTH CAROLINA NATIONAL WEATHER SERVICE NEWPORT/MOREHEAD CITY NC 600 AM EDT TUE JUL 28 2015 NOTE: "FAIR" INDICATES FEW OR NO CLOUDS BELOW 12,000 FEET WITH NO SIGNIFICANT WEATHER AND/OR OBSTRUCTIONS TO VISIBILITY NCZ015>017-031-032-045>047-102-103-281100- NORTH COAST CITY SKY/WX TMP DP RH WIND PRES REMARKS EDENTON MOCLDY 72 70 93 CALM 30.01R ELIZABETH CITY CLEAR 71 70 96 CALM 30.01R KITTY HAWK SUNNY 73 67 84 CALM 30.01R MANTEO CLEAR 70 68 95 CALM 30.02R $$ NCZ045>047-081-094-103-104-281100- CENTRAL COAST CITY SKY/WX TMP DP RH WIND PRES REMARKS FRISCO CLEAR 74 70 87 NE5 30.00S SWANQUARTER N/A 72 N/A N/A E3 29.97S $$ NCZ095-097-098-100-101-281100- SOUTHERN COAST CITY SKY/WX TMP DP RH WIND PRES REMARKS BEAUFORT CLEAR 72 71 97 NE3 29.99R CEDAR ISLAND N/A 79 N/A N/A E7 30.03S JACKSONVILLE CLEAR 73 70 90 N3 29.99R PINEY ISLAND SUNNY N/A N/A N/A E6 29.99S WILMINGTON CLEAR 71 70 96 NE5 29.97R $$ NCZ011>013-027>030-043-044-078>080-089-090>093-098-281100- COASTAL PLAIN CITY SKY/WX TMP DP RH WIND PRES REMARKS AHOSKIE CLEAR 67 66 97 CALM 30.01S CLINTON CLEAR 72 72 100 CALM 30.00R ELIZABETHTOWN CLEAR 71 71 100 CALM 29.99R GOLDSBORO CLEAR 71 70 98 S1 29.98R GREENVILLE CLEAR 72 70 94 CALM 30.02R HAVELOCK CLEAR 72 69 90 CALM 30.00S KENANSVILLE CLEAR 68 67 96 CALM 30.00S KINSTON CLEAR 70 69 96 CALM 30.01R NEW BERN CLEAR 71 68 90 CALM 30.01R FOG RICHLANDS CLEAR 70 64 83 N6 29.99R ROCKY MOUNT CLEAR 69 68 96 CALM 30.01R FOG WASHINGTON CLEAR 69 68 96 CALM 30.00S WHITEVILLE CLEAR 71 70 96 CALM 29.98R FOG $$ AMZ130-135-150-152-154-156-158-170-250-252-270-ANZ085-086-088-633-658-670-281100- MARINE OBSERVATIONS STATION/POSITION TIME TEMP WIND PRES WAVE SWELL AIR SEA DIR/SP/G HT/PER HT/PER (UTC) (F) (DEG/KT/KT) (MB) (FT/S) (FT/S) CHESAPEAKE LIGHT 1000 79 210/ 5/ 5 1016.9 64 E VA BEACH 0950 79 80 150/ 4/ 4 1016.1 2/11 2/11 DUCK 0900 77 74 150/ 3/ 4 1015.0 2 E DUCK 0911 80 N/A 2/10 2/11 OREGON INLET 0900 76 81 90/ 3/ 4 1015.7 13E OREGON INLT 1000 79 N/A 2/11 HATTERAS CG 0900 77 82 60/ 3/ 4 1015.3 DIAMOND BUOY NOT AVBL CAPE LOOKOUT 1000 80 70/ 10/ 11 1015.1 BEAUFORT LAB 0900 75 81 30/ 4/ 5 1014.5 30 SE NEW RVR IN NOT AVBL 27 SE WRIGHTSVLE 0900 78 81 70/ 10/ 12 N/A 5 SE WRIGHTSVLE 0908 81 81 80/ 10/ 16 1014.4 225 S CAPE HAT 0950 81 82 240/ 16/ 21 1013.6 5/ 7 2/11 41 SE CHARLESTON 0950 82 84 20/ 10/ 12 1012.9 3/ 7 3/ 7 $$

USA.gov is the U.S. government's official web portal to all federal, state and local government web resources and services.